Home   Weather   Sidon   Past weeks

Flag for Lebanon Past Weather in Sidon, Lebanon — Yesterday and Last 2 Weeks

Now
72 °F

Partly sunny.


Feels Like: 75 °F
Forecast: 65 / 78 °F
Wind: 13 mph from North

Location: Beirut Airport

Current Time: Apr 26, 2017 at 3:01:14 pm

Latest Report: Apr 26, 2017 at 2:00 pm


Visibility: 4 mi

Pressure: 30.04 "Hg

Humidity: 65%

Dew Point: 59 °F

Location of SidonLocation

Past Weather in Sidon — Graph

°F

Sidon Temperature Yesterday

Maximum temperature yesterday: 70 °F (at 2:00 pm)
Minimum temperature yesterday: 59 °F (at 6:00 am)
Average temperature yesterday: 66 °F

High & Low Weather Summary for the Past Weeks

 TemperatureHumidityPressure
High93 °F (Apr 22, 4:00 pm)88% (Apr 13, 9:00 am)30.18 "Hg (Apr 13, 9:00 am)
Low59 °F (Apr 25, 6:00 am)15% (Apr 22, 5:00 pm)29.68 "Hg (Apr 13, 2:00 am)
Average68 °F61%30.00 "Hg
* Reported Apr 11 1:00 pm — Apr 26 1:00 pm, Sidon, Weather by CustomWeather, © 2017

Note: Actual official high and low records may vary slightly from our data, if they occured in-between our weather recording intervals... More about our weather records

Advertising

Sidon Weather History for the Previous 24 Hours

Scroll right to see more
 ConditionsComfort  
Time TempWeatherWind HumidityBarometerVisibility
1:00 pm
Wed, Apr 26
70 °FPartly sunny.10 mph64%30.04 "Hg4 mi
12:00 pm72 °FPartly sunny.9 mph61%30.04 "Hg4 mi
11:00 am70 °FPartly sunny.9 mph57%30.07 "Hg5 mi
10:00 am68 °FPartly sunny.7 mph64%30.07 "Hg5 mi
9:00 am66 °FPartly sunny.3 mph68%30.07 "Hg5 mi
8:00 am66 °FPartly sunny.2 mph64%30.07 "Hg5 mi
7:00 am64 °FScattered clouds.3 mph68%30.07 "Hg5 mi
6:00 am63 °FPassing clouds.3 mph68%30.04 "HgN/A
5:00 am63 °FPassing clouds.3 mph64%30.04 "HgN/A
4:00 am63 °FClear.3 mph68%30.04 "Hg10 mi
3:00 am64 °FClear.3 mph60%30.04 "Hg10 mi
2:00 am64 °FClear.2 mph64%30.04 "Hg10 mi
1:00 am66 °FClear.3 mph60%30.07 "Hg10 mi
12:00 am66 °FClear.2 mph64%30.07 "Hg10 mi
11:00 pm
Tue, Apr 25
66 °FClear.3 mph64%30.07 "Hg10 mi
10:00 pm66 °FClear.2 mph68%30.07 "Hg10 mi
9:00 pm66 °FPassing clouds.7 mph68%30.07 "HgN/A
8:00 pm68 °FClear.7 mph56%30.07 "Hg10 mi
7:00 pm68 °FSunny.12 mph56%30.07 "Hg10 mi
6:00 pm70 °FSunny.13 mph57%30.07 "Hg10 mi
5:00 pm68 °FPassing clouds.12 mph60%30.09 "HgN/A
4:00 pm70 °FPassing clouds.13 mph57%30.09 "HgN/A
3:00 pm70 °FSunny.14 mph50%30.09 "Hg10 mi
Weather by CustomWeather, © 2017

See weather overviewHow to use our weather pages